Find Starlink 11207

NORAD ID: 60933 Int'l Des: 2024-155 Owner: SPXS Country: US Constellation: starlink operational
LEOCIRCULAR

Live Position

Loading 3D Globe...

About Starlink 11207

Description loading...

Upcoming Passes

Passes for default location (London). Set your location on the main map for personalized predictions.

Altitude History

Loading altitude history...

Two-Line Element Set

1 60933U 24155K 26105.85779633 -.00000104 00000-0 40022-5 0 9999
2 60933 53.1600 157.7596 0001223 83.1958 276.9199 15.69705806 94249
Epoch: Apr 15, 2026 • Age: 15 hours

Current Status

Altitude 359.8 km
Velocity 7.70 km/s
Sub-Earth Point 7.65°N, 137.09°E
Launch Date Aug 31, 2024
Age 1.6 years
Type internet

Technical Details

Classification Payload
Mass 960.00 kg
Dry Mass 910.00 kg
Total Mass 960.00 kg
Length 0.30 m
Diameter 4.10 m
Span 29.00 m
Shape Box + pan
Manufacturer SPXS
Bus Type Starlink V2MD
Phase Status In Orbit
Owner/State SPXS/US

Most Searched